Regional Weather Roundup
Issued by NWS Charleston, SC

Current Version | Previous Version | Graphics & Text | Print | Product List | Glossary On
Versions: 1 2 3 4 5 6 7 8 9 10 11 12 13 14 15 16 17 18 19 20 21 22 23 24 25 26 27 28 29 30 31 32 33 34 35 36 37 38 39 40 41 42 43 44 45 46 47 48 49 50
000 ASUS42 KCHS 311510 RWRCHS REGIONAL WEATHER ROUNDUP NATIONAL WEATHER SERVICE CHARLESTON SC 1100 AM EDT THU JUL 31 2014 NOTE: "FAIR" INDICATES FEW OR NO CLOUDS BELOW 12,000 FEET WITH NO SIGNIFICANT WEATHER AND/OR OBSTRUCTIONS TO VISIBILITY. NOT ALL STATIONS ARE QUALITY CONTROLLED BY THE NATIONAL WEATHER SERVICE. USE DATA WITH CAUTION...ESPECIALLY DEWPOINT OBSERVATIONS. SCZ027-030-031-034>040-042>050-311600- ...SOUTH CAROLINA... CITY SKY/WX TMP DP RH WIND PRES REMARKS N CHARLESTON TSTM 81 73 76 E12 30.04R WATERFRONT PRK N/A 82 N/A N/A E17 N/A FORT JOHNSON NOT AVBL MOUNT PLEASANT NOT AVBL JOHNS ISLAND NOT AVBL PINOPOLIS N/A 82 73 74 E9 29.99R MONCKS CORNER NOT AVBL SUMMERVILLE CLOUDY 82 73 74 NE5 30.06R BEAUFORT MCAS LGT RAIN 75 72 90 SE10G33 30.02S FOG BEAUFORT ARPT LGT RAIN 77 75 94 CALM 30.01S HILTON HEAD IS PTSUNNY 86 70 58 SE7 30.02S HX 90 GEORGETOWN NOT AVBL WALTERBORO CLOUDY 79 N/A N/A CALM 30.06S ORANGEBURG CLOUDY 76 70 82 E7 30.07S BARNWELL PTSUNNY 81 73 78 E9 30.06S AIKEN NOT AVBL MANNING NOT AVBL KINGSTREE NOT AVBL COLUMBIA CLOUDY 81 68 64 E10 30.07S SUMTER CLOUDY 79 71 76 NE6 30.07S FLORENCE CLOUDY 81 69 67 E10 30.09S MYRTLE BEACH MOSUNNY 84 72 65 SE17 30.08R N MYRTLE BEACH PTSUNNY 83 71 67 E16 30.09R $$ GAZ063-065-086>088-099>101-113>116-118-119-134-136>141-150-311600- ...GEORGIA... CITY SKY/WX TMP DP RH WIND PRES REMARKS SAVANNAH ARPT CLOUDY 87 73 62 SE5 30.01S HX 94 HUNTER AAF PTSUNNY 85 74 68 SE8 29.99S HX 93 FORT STEWART MOSUNNY 85 73 67 E5 30.00R HX 92 STATESBORO NOT AVBL SYLVANIA PTSUNNY 76 75 96 NE5 30.05S CLAXTON FAIR 82 77 83 E5 30.02S HX 91 THOMSON CLOUDY 78 76 93 NE3 30.11S AUGUSTA-BUSH PTSUNNY 80 71 74 E9 30.04S AUGUSTA-DANIEL PTSUNNY 82 71 69 E9 30.06S SWAINSBORO CLOUDY 81 75 83 SE6 30.05R VIDALIA N/A 84 73 70 NE8 30.03S HX 91 ALMA SUNNY 86 72 62 CALM 30.01S HX 92 WAYCROSS SUNNY 91 71 52 SW3 30.01S HX 97 JESUP FAIR 88 77 70 NW3 30.01S HX 100 BRUNSWICK MOSUNNY 88 72 58 CALM 30.01S HX 94 SAINT SIMONS MOSUNNY 85 74 69 VRB5 30.01R HX 92 $$ SCZ027-028-034-036>038-045-046-048>050-GAZ119-141-311600- ...LAKE AND SUPPLEMENTAL COASTAL OBSERVATIONS... STATION/POSITION TIME TEMP WIND PRES WAVE SWELL AIR SEA DIR/SP/G HT/PER HT/PER/DIR (UTC) (F) (DEG/KT/KT) (MB) (FT/S) (FT/S/D) UPR LAKE MARION NOT AVBL WINYAH BAY 1400 82 90/ 11 1017.0S LAKE MURRAY 1400 76 60/ 4/ 8 1017.9S ACE BASIN NERRS 1400 79 60/ 4 1017.0R FORT PULASKI 1500 84 130/ 8/ 11 1016.4S SAPELO ISLAND 1400 84 220/ 6 1016.0S $$ ANZ835-935-AMZ111-154-330-350-352-354-374-450-454-472-311600- ...C-MAN AND BUOY OBSERVATIONS... STATION/POSITION TIME TEMP WIND PRES WAVE SWELL AIR SEA DIR/SP/G HT/PER HT/PER/DIR (UTC) (F) (DEG/KT/KT) (MB) (FT/S) (FT/S/D) FOLLY BEACH CMAN 1400 81 80/ 18/ 20 1017.3R BUOY 41004 1500 78 83 130/ 17/ 23 1016.8R 4/ 5 2/ 9 BUOY 41008 1500 83 85 190/ 8/ 8 1016.1R 3/ 5 2/ 70/ 5 5E ST. MARYS GA 1500 85 N/A 2/ 5 FRYING PAN BUOY NOT AVBL BUOY 41025 1500 VRB 8/ 10 1020.1R 3/ 7 3/110/ 7 CAPE LOOKOUT NC 1400 80 80/ 13/ 15 1019.7R BUOY 41002 1418 76 80 160/ 12/ 14 1019.1R 4/ 6 3/100/ 7 BUOY 41010 1500 83 84 180/ 8/ 8 1016.8S 2/ 8 2/100/ 8 BUOY 41012 NOT AVBL ST AUGUSTINE FL 1500 83 70/ 3/ 4 1016.8R CAPERS NEARSHORE 1400 82 90/ 17/ 19 N/A FRIPP NEARSHORE NOT AVBL $$

USA.gov is the U.S. government's official web portal to all federal, state and local government web resources and services.